{"data":{"norad_id":68921,"intl_designator":"2026-098C","name":"KUIPER-00386","alt_names":[],"object_type":"PAYLOAD","status":"ACTIVE","operator":null,"country":"US","launch_date":"2026-04-30","launch_site_code":"FRGUI","launch_vehicle":null,"mission":null,"orbit_class":"UNKNOWN","rcs_meters":null,"size_class":null,"mass_kg":null,"dimensions":null,"purposes":[],"wikipedia_slug":null,"has_3d_model":false,"image_url":null,"decayed_at":null,"tle_current":{"epoch":"2026-05-25T02:32:47.311296Z","epoch_age_seconds":69488,"freshness":"FRESH","line1":"1 68921U 26098C   26145.10610314  .00021064  00000+0  61300-3 0  9990","line2":"2 68921  51.8721 178.8139 0003551  80.9153 279.2234 15.35372445  3808","mean_motion":15.35372445,"eccentricity":0.0003551,"inclination_deg":51.8721,"raan_deg":178.8139,"arg_perigee_deg":80.9153,"mean_anomaly_deg":279.2234,"bstar":0.000613,"rev_number":380,"period_min":93.788318573087,"perigee_km":457.38629778831,"apogee_km":462.24261091119,"semimajor_km":6837.9514543498,"source":"CELESTRAK","updated_at":"2026-05-25T13:38:08.792619Z"}}}